Regional Weather Roundup
Issued by NWS Charleston, WV

Home | Current Version | Previous Version | Text Only | Print | Product List | Glossary Off
Versions: 1 2 3 4 5 6 7 8 9 10 11 12 13 14 15 16 17 18 19 20 21 22 23 24 25 26 27 28 29 30 31 32 33 34 35 36 37 38 39 40 41 42 43 44 45 46 47 48 49 50

000
ASUS41 KRLX 281910
RWRRLX
West Virginia Regional Weather Roundup
National Weather Service Charleston WV
200 PM EST WED JAN 28 2015

Note: "fair" indicates few or no clouds below 12,000 feet with no
significant weather and/or obstructions to visibility.

WVZ003-282000-
Northern Panhandle of West Virginia

CITY           SKY/WX    TMP DP  RH WIND       PRES   REMARKS
WHEELING       SUNNY     22   9  57 CALM      30.30F
$$

WVZ009-282000-
Northwest West Virginia

CITY           SKY/WX    TMP DP  RH WIND       PRES   REMARKS
PARKERSBURG    SUNNY     27  12  53 W5        30.36F
$$

WVZ006-282000-
Western West Virginia

CITY           SKY/WX    TMP DP  RH WIND       PRES   REMARKS
HUNTINGTON     SUNNY     30  17  58 NE3       30.33F
$$

WVZ015-282000-
West Central West Virginia

CITY           SKY/WX    TMP DP  RH WIND       PRES   REMARKS
CHARLESTON     MOSUNNY   30  14  51 CALM      30.33F
$$

WVZ022-031-282000-
North Central West Virginia

CITY           SKY/WX    TMP DP  RH WIND       PRES   REMARKS
CLARKSBURG     SUNNY     24  13  62 CALM      30.32F
MORGANTOWN     SUNNY     25   9  50 VRB3      30.31F
$$

WVZ025-035-042-045-282000-
Southern West Virginia

CITY           SKY/WX    TMP DP  RH WIND       PRES   REMARKS
BECKLEY        SUNNY     26  16  65 NW6       30.21F
LOGAN            N/A     30  19  64 CALM      30.27F HAZE
BLUEFIELD      SUNNY     33  17  51 VRB6      30.18F
LEWISBURG      SUNNY     33  15  46 W6        30.19S
$$

WVZ047-282000-
Northern Mountains of West Virginia

CITY           SKY/WX    TMP DP  RH WIND       PRES   REMARKS
ELKINS         SUNNY     26  13  57 N7        30.25F
$$

WVZ052-282000-
Eastern Panhandle of West Virginia

CITY           SKY/WX    TMP DP  RH WIND       PRES   REMARKS
MARTINSBURG    MOSUNNY   33   5  30 NW9G18    30.23F
PETERSBURG     SUNNY     33  -4  20 CALM      30.26S
$$


USA.gov is the U.S. government's official web portal to all federal, state and local government web resources and services.